• In Deutschland
  • Länderverzeichnis
  • Für 7 Tage
  • Wassertemperatur
  • Satellitenkarten
  • Wetterkarte
  • Widgets
  • user-avatar
    Anmelden

    Stündliche Wetter Kchulna

    Heute, 13 Dezember, Mittwoch

    Zeit Temperatur Niederschläge Wind Luftdruck Luftfeuchtigkeit
    00:00 +22°C° 0 mm 0 m/S 760 mmHg 72%
    01:00 +22°C° 0 mm 0 m/S 759 mmHg 73%
    02:00 +21°C° 0 mm 0 m/S 759 mmHg 74%
    03:00 +21°C° 0 mm 0 m/S 759 mmHg 75%
    04:00 +21°C° 0 mm 0 m/S 759 mmHg 76%
    05:00 +20°C° 0 mm 0 m/S 760 mmHg 77%
    06:00 +20°C° 0 mm 0 m/S 760 mmHg 81%
    07:00 +22°C° 0 mm 0 m/S 760 mmHg 75%
    08:00 +23°C° 0 mm 0 m/S 761 mmHg 70%
    09:00 +25°C° 0 mm 0 m/S 761 mmHg 64%
    10:00 +28°C° 0 mm 1 m/S 761 mmHg 59%
    11:00 +29°C° 0 mm 1 m/S 761 mmHg 53%
    12:00 +30°C° 0 mm 1 m/S 761 mmHg 50%
    13:00 +30°C° 0 mm 1 m/S 760 mmHg 48%
    14:00 +31°C° 0 mm 1 m/S 759 mmHg 46%
    15:00 +31°C° 0 mm 2 m/S 759 mmHg 44%
    16:00 +29°C° 0 mm 1 m/S 759 mmHg 48%
    17:00 +28°C° 0 mm 1 m/S 759 mmHg 52%
    18:00 +25°C° 0 mm 0 m/S 759 mmHg 57%
    19:00 +24°C° 0 mm 0 m/S 759 mmHg 58%
    20:00 +26°C° 0 mm 1 m/S 760 mmHg 59%
    21:00 +25°C° 0 mm 1 m/S 760 mmHg 60%
    22:00 +25°C° 0 mm 1 m/S 760 mmHg 61%
    23:00 +24°C° 0 mm 1 m/S 760 mmHg 62%

    Morgen, 14 Dezember, Donnerstag

    Zeit Temperatur Niederschläge Wind Luftdruck Luftfeuchtigkeit
    00:00 +24°C° 0 mm 1 m/S 760 mmHg 63%
    01:00 +24°C° 0 mm 1 m/S 760 mmHg 64%
    02:00 +23°C° 0 mm 1 m/S 760 mmHg 64%
    03:00 +23°C° 0 mm 1 m/S 759 mmHg 65%
    04:00 +22°C° 0 mm 1 m/S 760 mmHg 65%
    05:00 +22°C° 0 mm 1 m/S 760 mmHg 66%
    06:00 +22°C° 0 mm 1 m/S 760 mmHg 66%
    07:00 +23°C° 0 mm 1 m/S 760 mmHg 62%
    08:00 +25°C° 0 mm 1 m/S 761 mmHg 58%
    09:00 +26°C° 0 mm 1 m/S 761 mmHg 54%
    10:00 +28°C° 0 mm 2 m/S 761 mmHg 49%
    11:00 +29°C° 0 mm 3 m/S 761 mmHg 43%
    12:00 +31°C° 0 mm 3 m/S 761 mmHg 37%
    13:00 +31°C° 0 mm 3 m/S 760 mmHg 37%
    14:00 +31°C° 0 mm 3 m/S 760 mmHg 36%
    15:00 +31°C° 0 mm 3 m/S 759 mmHg 35%
    16:00 +29°C° 0 mm 2 m/S 759 mmHg 39%
    17:00 +28°C° 0 mm 2 m/S 759 mmHg 42%
    18:00 +26°C° 0 mm 1 m/S 760 mmHg 46%
    19:00 +25°C° 0 mm 1 m/S 760 mmHg 47%
    20:00 +25°C° 0 mm 1 m/S 760 mmHg 48%
    21:00 +24°C° 0 mm 1 m/S 761 mmHg 49%
    22:00 +24°C° 0 mm 1 m/S 761 mmHg 49%
    23:00 +23°C° 0 mm 1 m/S 761 mmHg 50%

    übermorgen, 15 Dezember, Freitag

    Zeit Temperatur Niederschläge Wind Luftdruck Luftfeuchtigkeit
    00:00 +23°C° 0 mm 2 m/S 761 mmHg 51%
    01:00 +21°C° 0 mm 2 m/S 760 mmHg 51%
    02:00 +21°C° 0 mm 2 m/S 760 mmHg 51%
    03:00 +21°C° 0 mm 2 m/S 760 mmHg 52%
    04:00 +20°C° 0 mm 2 m/S 760 mmHg 53%
    05:00 +20°C° 0 mm 2 m/S 760 mmHg 55%
    06:00 +19°C° 0 mm 2 m/S 760 mmHg 57%
    07:00 +21°C° 0 mm 2 m/S 761 mmHg 53%
    08:00 +22°C° 0 mm 3 m/S 762 mmHg 50%
    09:00 +25°C° 0 mm 3 m/S 762 mmHg 47%
    10:00 +26°C° 0 mm 4 m/S 762 mmHg 41%
    11:00 +28°C° 0 mm 4 m/S 762 mmHg 35%
    12:00 +29°C° 0 mm 4 m/S 761 mmHg 29%
    13:00 +30°C° 0 mm 4 m/S 761 mmHg 29%
    14:00 +30°C° 0 mm 4 m/S 760 mmHg 28%
    15:00 +30°C° 0 mm 4 m/S 759 mmHg 27%
    16:00 +28°C° 0 mm 3 m/S 760 mmHg 31%
    17:00 +26°C° 0 mm 3 m/S 760 mmHg 35%
    18:00 +24°C° 0 mm 2 m/S 760 mmHg 38%
    19:00 +23°C° 0 mm 2 m/S 761 mmHg 39%
    20:00 +23°C° 0 mm 2 m/S 761 mmHg 40%
    21:00 +21°C° 0 mm 2 m/S 762 mmHg 40%
    22:00 +21°C° 0 mm 2 m/S 762 mmHg 41%
    23:00 +20°C° 0 mm 2 m/S 762 mmHg 41%

    16 Dezember, Samstag

    Zeit Temperatur Niederschläge Wind Luftdruck Luftfeuchtigkeit
    00:00 +19°C° 0 mm 2 m/S 762 mmHg 42%
    01:00 +19°C° 0 mm 2 m/S 761 mmHg 42%
    02:00 +19°C° 0 mm 2 m/S 761 mmHg 43%
    03:00 +18°C° 0 mm 2 m/S 761 mmHg 44%
    04:00 +18°C° 0 mm 2 m/S 761 mmHg 45%
    05:00 +17°C° 0 mm 2 m/S 761 mmHg 46%
    06:00 +17°C° 0 mm 2 m/S 761 mmHg 47%
    07:00 +19°C° 0 mm 2 m/S 762 mmHg 45%
    08:00 +20°C° 0 mm 2 m/S 763 mmHg 43%
    09:00 +23°C° 0 mm 2 m/S 763 mmHg 42%
    10:00 +24°C° 0 mm 2 m/S 763 mmHg 38%
    11:00 +26°C° 0 mm 3 m/S 762 mmHg 34%
    12:00 +28°C° 0 mm 3 m/S 762 mmHg 31%
    13:00 +28°C° 0 mm 3 m/S 761 mmHg 30%
    14:00 +29°C° 0 mm 3 m/S 761 mmHg 30%
    15:00 +29°C° 0 mm 3 m/S 760 mmHg 29%
    16:00 +27°C° 0 mm 3 m/S 760 mmHg 33%
    17:00 +25°C° 0 mm 2 m/S 761 mmHg 37%
    18:00 +23°C° 0 mm 2 m/S 761 mmHg 42%
    19:00 +23°C° 0 mm 1 m/S 761 mmHg 43%
    20:00 +22°C° 0 mm 1 m/S 762 mmHg 44%
    21:00 +21°C° 0 mm 1 m/S 762 mmHg 45%
    22:00 +21°C° 0 mm 1 m/S 762 mmHg 46%
    23:00 +20°C° 0 mm 1 m/S 762 mmHg 47%

    17 Dezember, Sonntag

    Zeit Temperatur Niederschläge Wind Luftdruck Luftfeuchtigkeit
    00:00 +20°C° 0 mm 1 m/S 762 mmHg 47%
    01:00 +20°C° 0 mm 1 m/S 762 mmHg 48%
    02:00 +19°C° 0 mm 1 m/S 762 mmHg 49%
    03:00 +18°C° 0 mm 2 m/S 762 mmHg 49%
    04:00 +18°C° 0 mm 2 m/S 762 mmHg 50%
    05:00 +17°C° 0 mm 2 m/S 762 mmHg 51%
    06:00 +17°C° 0 mm 2 m/S 762 mmHg 52%
    07:00 +19°C° 0 mm 2 m/S 763 mmHg 50%
    08:00 +20°C° 0 mm 2 m/S 764 mmHg 47%
    09:00 +23°C° 0 mm 2 m/S 764 mmHg 45%
    10:00 +24°C° 0 mm 2 m/S 764 mmHg 42%
    11:00 +26°C° 0 mm 2 m/S 763 mmHg 39%
    12:00 +28°C° 0 mm 2 m/S 763 mmHg 36%
    13:00 +28°C° 0 mm 2 m/S 762 mmHg 34%
    14:00 +29°C° 0 mm 2 m/S 762 mmHg 33%
    15:00 +29°C° 0 mm 1 m/S 761 mmHg 31%
    16:00 +27°C° 0 mm 1 m/S 761 mmHg 35%
    17:00 +26°C° 0 mm 1 m/S 761 mmHg 39%
    18:00 +24°C° 0 mm 1 m/S 761 mmHg 43%
    19:00 +23°C° 0 mm 1 m/S 762 mmHg 45%
    20:00 +23°C° 0 mm 1 m/S 762 mmHg 47%
    21:00 +22°C° 0 mm 1 m/S 763 mmHg 48%
    22:00 +21°C° 0 mm 1 m/S 763 mmHg 50%
    23:00 +21°C° 0 mm 1 m/S 762 mmHg 51%

    18 Dezember, Montag

    Zeit Temperatur Niederschläge Wind Luftdruck Luftfeuchtigkeit
    00:00 +21°C° 0 mm 1 m/S 762 mmHg 52%
    01:00 +20°C° 0 mm 1 m/S 762 mmHg 54%
    02:00 +20°C° 0 mm 1 m/S 762 mmHg 56%
    03:00 +20°C° 0 mm 1 m/S 762 mmHg 58%
    04:00 +19°C° 0 mm 1 m/S 762 mmHg 60%
    05:00 +19°C° 0 mm 1 m/S 762 mmHg 62%
    06:00 +19°C° 0 mm 1 m/S 762 mmHg 64%
    07:00 +20°C° 0 mm 1 m/S 763 mmHg 61%
    08:00 +22°C° 0 mm 1 m/S 764 mmHg 57%
    09:00 +24°C° 0 mm 1 m/S 764 mmHg 53%
    10:00 +25°C° 0 mm 1 m/S 764 mmHg 49%
    11:00 +27°C° 0 mm 2 m/S 763 mmHg 44%
    12:00 +28°C° 0 mm 2 m/S 763 mmHg 39%
    13:00 +29°C° 0 mm 2 m/S 762 mmHg 38%
    14:00 +29°C° 0 mm 2 m/S 762 mmHg 36%
    15:00 +29°C° 0 mm 2 m/S 761 mmHg 34%
    16:00 +28°C° 0 mm 2 m/S 761 mmHg 38%
    17:00 +26°C° 0 mm 1 m/S 761 mmHg 43%
    18:00 +24°C° 0 mm 1 m/S 761 mmHg 47%
    19:00 +24°C° 0 mm 1 m/S 762 mmHg 48%
    20:00 +23°C° 0 mm 1 m/S 762 mmHg 50%
    21:00 +22°C° 0 mm 1 m/S 763 mmHg 51%
    22:00 +22°C° 0 mm 1 m/S 762 mmHg 52%
    23:00 +22°C° 0 mm 1 m/S 762 mmHg 53%
    Mehr zeigen